O3B FM13

Last updated on Wed Jun 24 2026 00:03:25 GMT+0000 (Coordinated Universal Time)

1 43234U 18024D 26171.25057030 -.00000024 00000+0 00000+0 0 9995 2 43234 0.0547 261.1101 0023783 59.3674 39.3467 5.00080344151219
UTC large
Height (km)
Speed (km/s)
/
Latitude / Longitude
Inclination (degrees)
Orbital Period (minutes)
Azimuth
Elevation
Range (km)
Doppler Factor

Next 0 passes for location: London (51.5072 / 0.1276)

No passes found over London.
O3B FM13